map of KUA home
KUA - Airport
Location
City:  Kuantan, Penang (Pahang), Malaysia
Name:Sultan Abmad Shah Airport
Old (Alt.):Pedang Geroda Airport
ICAO:WMKD
IATA:KUA

Details
Type:Airport (Aerodrome, Airfield)
Use:Military
Latitude:346'31"N (3.775389)
Longitude:10312'33"E (103.209056)
Datum:WGS 1984
Elevation:58 ft (18 m)
Variation:0.01E (WMM2015v2 magnetic declination)
-0.02 annual change
Runways:1
Longest:9200 × 150 ft (2804 × 45.5 m), paved

Time
Time Zone:UTC+8
Local Time:

Weather
METAR:WMKD 041400Z VRB01KT 9999 FEW024 BKN280 26/24 Q1014 NOSIG

Related Locations
Nearby:
Farthest:SPGB: 12379 mi / 19923 km
Galilea, AMA, PE

Find:

   beyond  
but within

Other Information
Maps:
NOTAMs:
Links:
Sources:

  
  • flag of Malaysia
  • flag of Penang (Pahang)
  

Sectional Chart

Flight Planning
at skyvector.com

Satellite Image

Google Maps Satellite view

 

Copyright © 2004-2019 Karl L. Swartz. All rights reserved.
The Great Circle Mapper name and logo are trademarks of the Great Circle Mapper.
All other trademarks mentioned herein belong to their respective owners.
Please see credits for attibutions and further copyright information.

  Follow gcmap on Facebook Follow gcmap on Twitter GCmap on LinkedIn

hCard Microformat

Geo Microformat